Hourly Data Report for October 03, 2017

All times are specified in Local Standard Time (LST). Add 1 hour to adjust for Daylight Saving Time where and when it is observed.

KUGAARUK CLIMATE
NUNAVUT

68°32'15.060" N
89°47'47.020" W
15.80 m
2303094
71407
NBB

Download Data

Hourly Data (October 2017)
Hourly Data Report for October 3, 2017
Temp Definition
°C
Dew Point Temp Definition
°C
Rel Hum Definition
%
Wind Dir Definition
10's deg

Wind Spd Definition
km/h
Visibility Definition
km
Stn Press Definition
kPa
Hmdx Definition


Wind Chill Definition


Weather Definition


TIME
00:00 -3.6 -5.5 87 29 26   99.46   -11 LegendNANA
01:00 -4.1 -6.1 86 29 21   99.43   -11 LegendNANA
02:00 -4.5 -5.8 90 26 24   99.36   -12 LegendNANA
03:00 -3.7 -5.3 89 27 27   99.29   -11 LegendNANA
04:00 -3.6 -5.0 90 28 24   99.24   -10 LegendNANA
05:00 -3.8 -6.1 84 30 25   99.21   -11 LegendNANA
06:00 -3.9 -5.5 89 31 31   99.19   -12 LegendNANA
07:00 -3.7 -5.8 85 31 32   99.20   -12 LegendNANA
08:00 -3.6 -6.4 81 31 31   99.18   -11 LegendNANA
09:00 -4.0 -7.1 79 31 38   99.17   -13 LegendNANA
10:00 -3.8 -7.5 76 30 37   99.15   -12 LegendNANA
11:00 -4.2 -7.9 76 30 38   99.13   -13 LegendNANA
12:00 -4.5 -7.5 79 30 40   99.12   -13 LegendNANA
13:00 -5.1 -8.2 79 30 42   99.10   -14 LegendNANA
14:00 -4.8 -7.8 80 30 43   99.06   -14 LegendNANA
15:00 -4.8 -7.7 80 29 44   98.98   -14 LegendNANA
16:00 -5.2 -7.5 84 29 46   98.93   -15 LegendNANA
17:00 -5.6 -7.9 84 29 48   98.84   -16 LegendNANA
18:00 -6.0 -7.2 91 29 50   98.79   -16 LegendNANA
19:00 -5.8 -6.9 92 29 48   98.71   -16 LegendNANA
20:00 -5.2 -6.1 93 29 51   98.67   -15 LegendNANA
21:00 -5.2 -6.1 93 29 49   98.62   -15 LegendNANA
22:00 -4.7 -6.0 90 29 49   98.56   -14 LegendNANA
23:00 -4.3 -5.6 90 29 50   98.50   -14 LegendNANA

Notes on Data Quality.

Legend

  • E = Estimated
  • M = Missing
  • NA = Not Available
  • ‡ = Partner data that is not subject to review by the National Climate Archives
Date modified: